Location: *
(50.3194°N, 7.1067°E)
Time: 02:13:27
(UTC+00:00)

Cosmos 2084 Rocket - Pass Details

Date: 22 September 2019
Orbit: 572 x 610 km, 62.8° (Epoch: 22 October)

Event Time Altitude Azimuth Distance (km) Brightness Sun altitude
Rises 19:24:38 0° 225° (SW) 2,856 7.2 -18.5°
Reaches altitude 10° 19:26:53 10° 226° (SW) 1,958 6.4 -18.8°
Maximum altitude 19:31:20 84° 315° (NW) 620 3.5 -19.5°
Enters shadow 19:35:37 11° 44° (NE) 1,893 5.9 -20.1°
